Погода в Вильхельмине

Швеция     64°36′59″N   16°40′06″E
темп.,
°C
ветер,
м/с
пор.,
м/с
влажн.,
%
обл.,
%
осадки,
мм/ч
давл.,
гПа
погр.,
м
5 мая, ср
ср523:00−2всв3118762 0.0 1010412
02:00−3всв3109088 0.0 1010333
05:00−4всв31193100 0.0 1009380
08:00−1всв41086100 0.0 1009713
11:00+2в5875100 0.2 10081492
14:00+2в5768100 0.5 10071755
17:00+2всв4774100 0.4 10061351
20:000всв3784100 0.6 1006378
6 мая, чт
чт623:00−4ссв2796100 0.1 1007189
02:00−4ссв2897100 0.1 1006298
05:00−3ссв3993100 0.0 1005477
08:00−1ссв4884100 0.0 1004765
11:00+1св4773100 0.3 10041259
14:00+2св4667100 0.9 10031408
17:00+2св4671100 0.6 10021214
20:000св2583100 1.4 1003297
7 мая, пт
пт723:00−4ссз249648 0.2 100486
02:00−4ссз269617 0.2 1004164
05:00−4ссз279612 0.0 1004244
08:000с357631 0.0 1003631
11:00+2ссз3456100 0.0 10031593
14:00+4сз2452100 0.2 10021638
17:00+4сз455791 0.8 10021369
20:00+1зсз24775 0.9 100370
8 мая, сб
сб823:00−3з119427 0.0 100412
02:00−4зюз119532 0.0 100514
05:00−3зюз12915 0.0 100549
08:00+1з35650 0.0 1005516
11:00+4зсз46525 0.0 10051491
14:00+5зсз564899 0.1 10062024
17:00+4з465896 0.4 10061412
20:00+1зсз257584 0.4 1007149
9 мая, вс
вс923:00−2з11813 0.0 100913
02:00−2зюз11805 0.0 100910
05:00−2юз11795 0.0 100910
08:00+2зюз135810 0.0 1008431
11:00+5з23457 0.0 10071285
14:00+7зюз1243100 0.0 10072007
17:00+7ююв224659 0.0 10071681
20:00+3вюв116989 0.0 100711